Location: Unspecified
(52.4292°N, 19.3359°E)
Time: 23:39:38
(UTC+02:00)

A-11 Canister half - Pass Details

Date: 27 May 2024
Orbit: 1524 x 1683 km, 47.3° (Epoch: 19 June)

Event Time Altitude Azimuth Distance (km) Brightness Sun altitude
Rises 23:01:21 0° 258° (WSW) 4,694 11.7 -13.0°
Reaches altitude 10° 23:04:23 10° 256° (WSW) 3,724 11.1 -13.2°
Maximum altitude 23:13:40 66° 177° (S) 1,702 9.0 -13.7°
Drops below altitude 10° 23:23:16 10° 99° (E) 3,843 10.8 -14.2°
Sets 23:26:27 0° 97° (E) 4,850 11.4 -14.4°
